Appleton, WI

7:03 PM CST on November 13, 2019 (GMT -0600)
Outagamie County Regional

Weather History for KATW - September, 2019

Change the Weather History Date:

Sunday, September 22, 2019

  Actual Average Record
Temperature  
Mean Temperature 65 °F -  
Max Temperature 71 °F 64 °F 89 °F (2017)
Min Temperature 59 °F 46 °F 29 °F (1974)
Growing Degree Days 15 (Base 50)    
Moisture  
Dew Point 66 °F    
Average Humidity 96    
Maximum Humidity 100    
Minimum Humidity 88    
Precipitation  
Precipitation 0.00 in - - ()
Sea Level Pressure  
Sea Level Pressure 29.82 in    
Wind  
Wind Speed 10 mph ()    
Max Wind Speed 20 mph    
Max Gust Speed 29 mph    
Visibility 9.8 miles    
Events Rain , Thunderstorm    
Averages and records for this station are not official NWS values.
T = Trace of Precipitation, MM = Missing Value Source: Averaged Metar Reports

Daily Weather History Graph

Daily Weather History Graph

Search for Another Location

Airport or City:

Astronomy

Sep. 22, 2019 Rise Set
Actual Time 6:41 AM CDT 6:51 PM CDT
Civil Twilight 6:12 AM CDT 7:20 PM CDT
Nautical Twilight 5:38 AM CDT 7:54 PM CDT
Astronomical Twilight 5:03 AM CDT 8:29 PM CDT
Moon No Moon Rise 3:01 PM CDT (9/22)
Length of Visible Light 13h 08m
Length of Day
12h 10m
Last Quarter, 44% of the Moon is Illuminated
Sep 22
Last Quarter
Sep 28
New
Oct 5
First Quarter
Oct 13
Full
Oct 21
Last Quarter

Hourly Weather History & Observations

Time (CDT) Temp. Dew Point Humidity Pressure Visibility Wind Dir Wind Speed Gust Speed Precip Events Conditions
12:15 AM 71.6 °F 69.8 °F 94% 29.88 in 10.0 mi SSW 13.8 mph - N/A   Overcast
12:35 AM 71.6 °F 69.8 °F 94% 29.87 in 10.0 mi SSW 15.0 mph 20.7 mph N/A   Overcast
12:55 AM 71.6 °F 69.8 °F 94% 29.87 in 10.0 mi SSW 13.8 mph 18.4 mph N/A Thunderstorm Overcast
1:15 AM 71.6 °F 69.8 °F 94% 29.88 in 10.0 mi SSW 13.8 mph - N/A Rain , Thunderstorm Light Thunderstorms and Rain
1:35 AM 71.6 °F 69.8 °F 94% 29.87 in 10.0 mi SSW 10.4 mph 18.4 mph N/A Rain Light Rain
1:55 AM 71.6 °F 69.8 °F 94% 29.87 in 10.0 mi SSW 11.5 mph 17.3 mph N/A Rain Light Rain
2:15 AM 69.8 °F 69.8 °F 100% 29.86 in 10.0 mi SSW 10.4 mph 16.1 mph N/A   Overcast
2:35 AM 69.8 °F 69.8 °F 100% 29.86 in 10.0 mi SSW 9.2 mph - N/A   Overcast
2:55 AM 69.8 °F 69.8 °F 100% 29.85 in 10.0 mi SSW 9.2 mph - N/A   Overcast
3:15 AM 69.8 °F 69.8 °F 100% 29.84 in 10.0 mi SSW 10.4 mph - N/A   Overcast
3:35 AM 69.8 °F 69.8 °F 100% 29.83 in 10.0 mi SSW 12.7 mph 16.1 mph N/A   Overcast
3:55 AM 69.8 °F 69.8 °F 100% 29.83 in 10.0 mi SSW 12.7 mph - N/A   Overcast
4:15 AM 69.8 °F 69.8 °F 100% 29.83 in 10.0 mi SSW 10.4 mph - N/A   Overcast
4:35 AM 69.8 °F 69.8 °F 100% 29.83 in 10.0 mi SSW 9.2 mph - N/A   Overcast
4:55 AM 69.8 °F 69.8 °F 100% 29.83 in 10.0 mi SSW 9.2 mph - N/A   Overcast
5:15 AM 69.8 °F 69.8 °F 100% 29.82 in 10.0 mi SSW 9.2 mph - N/A   Overcast
5:22 AM 71.6 °F 69.8 °F 94% 29.82 in 10.0 mi SSW 9.2 mph - N/A   Overcast
5:45 AM 71.6 °F 69.8 °F 94% 29.82 in 10.0 mi SSW 9.2 mph - N/A   Overcast
6:45 AM 71.6 °F 69.8 °F 94% 29.81 in 7.0 mi South 8.1 mph - N/A Rain Light Rain
7:45 AM 68.0 °F 66.2 °F 94% 29.84 in 7.0 mi WSW 12.7 mph - N/A Rain Light Rain
8:45 AM 68.0 °F 66.2 °F 94% 29.81 in 10.0 mi SSW 5.8 mph - N/A Rain Light Rain
9:45 AM 68.0 °F 66.2 °F 94% 29.79 in 10.0 mi SW 5.8 mph - N/A Rain Light Rain
10:45 AM 66.2 °F 66.2 °F 100% 29.80 in 10.0 mi WSW 5.8 mph - N/A Rain Light Rain
11:45 AM 68.0 °F 66.2 °F 94% 29.80 in 10.0 mi SW 8.1 mph - N/A Rain Light Rain
12:45 PM 66.2 °F 64.4 °F 94% 29.79 in 10.0 mi SW 10.4 mph - N/A Rain Light Rain
1:45 PM 66.2 °F 66.2 °F 100% 29.78 in 10.0 mi SW 10.4 mph - N/A   Overcast
2:45 PM 66.2 °F 64.4 °F 94% 29.78 in 10.0 mi SW 5.8 mph - N/A   Overcast
3:45 PM 66.2 °F 64.4 °F 94% 29.77 in 10.0 mi SSW 8.1 mph - N/A   Overcast
4:45 PM 66.2 °F 64.4 °F 94% 29.76 in 10.0 mi Variable 5.8 mph - N/A   Overcast
5:45 PM 66.2 °F 64.4 °F 94% 29.77 in 10.0 mi WSW 9.2 mph - N/A   Mostly Cloudy
6:45 PM 66.2 °F 62.6 °F 88% 29.79 in 10.0 mi WSW 6.9 mph - N/A   Mostly Cloudy
7:45 PM 64.4 °F 62.6 °F 94% 29.79 in 10.0 mi West 4.6 mph - N/A   Mostly Cloudy
8:45 PM 62.6 °F 62.6 °F 100% 29.79 in 10.0 mi WSW 3.5 mph - N/A   Mostly Cloudy
9:45 PM 62.6 °F 62.6 °F 100% 29.80 in 10.0 mi WSW 5.8 mph - N/A   Mostly Cloudy
10:45 PM 62.6 °F 62.6 °F 100% 29.82 in 10.0 mi West 10.4 mph - N/A   Overcast
10:55 PM 60.8 °F 60.8 °F 100% 29.85 in 10.0 mi West 16.1 mph - N/A   Overcast
11:15 PM 60.8 °F 57.2 °F 88% 29.86 in 7.0 mi WNW 19.6 mph 28.8 mph N/A Rain Rain
11:35 PM 59.0 °F 55.4 °F 88% 29.85 in 10.0 mi NW 11.5 mph - N/A Rain Rain
11:55 PM 59.0 °F 55.4 °F 88% 29.82 in 10.0 mi North 10.4 mph - N/A Rain Light Rain